Change the Weather History Date:

Saturday, November 23, 2013

  Actual Average Record
Temperature  
Mean Temperature 27 °F 37 °F  
Max Temperature 35 °F 43 °F 67 °F (1999)
Min Temperature 18 °F 32 °F 4 °F (1956)
Degree Days  
Heating Degree Days 38 28  
Month to date heating degree days 509 541  
Since 1 July heating degree days 1017 1164  
Cooling Degree Days 0 0  
Month to date cooling degree days 0 0  
Year to date cooling degree days 626 566  
Moisture  
Dew Point 14 °F    
Average Humidity 58    
Maximum Humidity 73    
Minimum Humidity 43    
Precipitation  
Precipitation 0.01 in 0.11 in 1.24 in (1983)
Month to date precipitation 3.07 2.62  
Year to date precipitation 40.74 30.20  
Snow  
Snow 0.20 in 0.30 in 4.30 in (1970)
Month to date snowfall 0.3 3.4  
Since 1 July snowfall 0.3 3.6  
Since 1 September snowfall 0.3 3.6  
Snow Depth 0.00 in    
Sea Level Pressure  
Sea Level Pressure 30.48 in    
Wind  
Wind Speed 16 mph (NNW)    
Max Wind Speed 29 mph    
Max Gust Speed 38 mph    
Visibility 7 miles    
Events Snow    
T = Trace of Precipitation, MM = Missing Value Source: NWS Daily Summary

Daily Weather History Graph

Daily Weather History Graph

Search for Another Location

Airport or City:

Trip Planner

Search our weather history database for the weather conditions in past years. The results will help you decide how hot, cold, wet, or windy it might be!

Date:

Astronomy

Nov. 23, 2013 Rise Set
Actual Time 7:48 AM EST 5:14 PM EST
Civil Twilight 7:16 AM EST 5:45 PM EST
Nautical Twilight 6:41 AM EST 6:20 PM EST
Astronomical Twilight 6:07 AM EST 6:54 PM EST
Moon 10:46 PM EST (11/23) 12:01 PM EST (11/23)
Length of Visible Light 10h 29m
Length of Day
9h 26m
Waning Gibbous, 70% of the Moon is Illuminated
Nov 23
Waning Gibbous
Nov 25
Last Quarter
Dec 2
New
Dec 9
First Quarter
Dec 17
Full

Hourly Weather History & Observations

Time (EST) Temp. Windchill Dew Point Humidity Pressure Visibility Wind Dir Wind Speed Gust Speed Precip Events Conditions
12:55 AM 34.0 °F 23.4 °F 15.1 °F 46% 30.37 in 10.0 mi WNW 17.3 mph 23.0 mph N/A   Clear
1:55 AM 33.1 °F 23.4 °F 14.0 °F 46% 30.35 in 10.0 mi WNW 13.8 mph 23.0 mph N/A   Clear
2:55 AM 33.1 °F 23.9 °F 15.1 °F 48% 30.35 in 10.0 mi WNW 12.7 mph 21.9 mph N/A   Clear
3:55 AM 33.1 °F 23.0 °F 15.1 °F 48% 30.34 in 10.0 mi West 15.0 mph 23.0 mph N/A   Overcast
4:55 AM 32.0 °F 22.5 °F 16.0 °F 52% 30.34 in 10.0 mi NW 12.7 mph 23.0 mph N/A   Overcast
5:55 AM 32.0 °F 22.5 °F 15.1 °F 50% 30.35 in 10.0 mi NW 12.7 mph 21.9 mph N/A   Overcast
6:55 AM 28.9 °F 18.2 °F 18.0 °F 64% 30.38 in 9.0 mi North 13.8 mph - 0.00 in   Overcast
7:55 AM 27.0 °F 12.5 °F 10.9 °F 51% 30.41 in 10.0 mi North 23.0 mph 34.5 mph 0.00 in   Overcast
8:55 AM 26.1 °F 12.3 °F 12.9 °F 58% 30.43 in 10.0 mi NNW 19.6 mph 33.4 mph N/A   Overcast
9:55 AM 25.0 °F 13.1 °F 16.0 °F 69% 30.46 in 2.5 mi North 13.8 mph 26.5 mph 0.00 in Snow Light Snow
10:08 AM 26.6 °F 14.7 °F 17.6 °F 69% 30.42 in 9.0 mi NNW 15.0 mph 24.2 mph 0.00 in   Overcast
10:25 AM 26.6 °F 13.1 °F 17.6 °F 69% 30.44 in 7.0 mi NNW 19.6 mph 24.2 mph 0.00 in   Overcast
10:30 AM 24.8 °F 11.5 °F 17.6 °F 74% 30.44 in 1.2 mi North 17.3 mph - 0.00 in Snow Light Snow
10:34 AM 24.8 °F 11.5 °F 17.6 °F 74% 30.45 in 0.2 mi North 17.3 mph 24.2 mph 0.00 in Snow Heavy Snow
10:47 AM 21.2 °F 6.8 °F 15.8 °F 80% 30.45 in 0.2 mi NNW 17.3 mph 29.9 mph 0.00 in Snow Snow
10:53 AM 23.0 °F 8.7 °F 15.8 °F 74% 30.45 in 0.2 mi North 18.4 mph 21.9 mph 0.00 in Snow Light Snow
10:55 AM 23.0 °F 7.6 °F 16.0 °F 74% 30.49 in 0.2 mi North 21.9 mph 25.3 mph 0.00 in Snow Light Snow
11:03 AM 24.8 °F 10.7 °F 14.0 °F 64% 30.46 in 10.0 mi NNW 19.6 mph 32.2 mph 0.00 in   Overcast
11:55 AM 26.1 °F 12.0 °F 12.9 °F 58% 30.49 in 9.0 mi North 20.7 mph 31.1 mph 0.00 in   Mostly Cloudy
12:55 PM 23.0 °F 8.0 °F 12.9 °F 65% 30.51 in 9.0 mi North 20.7 mph 32.2 mph 0.00 in   Mostly Cloudy
1:05 PM 24.8 °F 10.3 °F 14.0 °F 64% 30.47 in 7.0 mi NNW 20.7 mph 28.8 mph 0.00 in Snow Light Snow
1:40 PM 23.0 °F 7.6 °F 10.4 °F 59% 30.48 in 9.0 mi North 21.9 mph 27.6 mph 0.00 in Snow Light Snow
1:55 PM 24.1 °F 10.1 °F 10.0 °F 55% 30.52 in 10.0 mi NNW 18.4 mph 29.9 mph 0.00 in   Scattered Clouds
2:55 PM 23.0 °F 8.3 °F 12.0 °F 63% 30.53 in 4.0 mi North 19.6 mph 27.6 mph 0.00 in Snow Light Snow
3:55 PM 21.0 °F 8.1 °F 12.0 °F 68% 30.55 in 4.0 mi NNW 13.8 mph 27.6 mph 0.00 in Snow Light Snow
4:55 PM 21.0 °F 7.1 °F 10.9 °F 65% 30.57 in 9.0 mi NNW 16.1 mph 21.9 mph 0.00 in Snow Light Snow
5:55 PM 21.0 °F 6.2 °F 10.9 °F 65% 30.58 in 7.0 mi NNW 18.4 mph 24.2 mph 0.00 in Snow Light Snow
6:55 PM 21.0 °F 7.1 °F 12.0 °F 68% 30.60 in 7.0 mi NNW 16.1 mph 20.7 mph 0.00 in Snow Light Snow
7:55 PM 21.0 °F 7.1 °F 10.0 °F 63% 30.62 in 10.0 mi North 16.1 mph - 0.00 in   Overcast
8:55 PM 19.9 °F 7.9 °F 12.0 °F 71% 30.61 in 9.0 mi North 11.5 mph - 0.00 in   Mostly Cloudy
9:55 PM 19.9 °F 6.7 °F 10.9 °F 68% 30.62 in 9.0 mi North 13.8 mph 20.7 mph 0.00 in   Mostly Cloudy
10:45 PM 19.4 °F 5.0 °F 12.2 °F 74% 30.58 in 2.5 mi NNW 16.1 mph 23.0 mph 0.00 in Snow Light Snow
10:52 PM 19.4 °F 6.0 °F 12.2 °F 74% 30.58 in 7.0 mi North 13.8 mph 23.0 mph 0.00 in Snow Light Snow
10:55 PM 19.9 °F 5.7 °F 10.9 °F 68% 30.62 in 8.0 mi North 16.1 mph 23.0 mph 0.00 in   Overcast
11:55 PM 19.0 °F 10.0 °F 10.9 °F 71% 30.62 in 10.0 mi North 6.9 mph - 0.00 in   Mostly Cloudy